536 
ASUS46 KSEW 041810
RWRWA 

WASHINGTON REGIONAL WEATHER ROUNDUP
NATIONAL WEATHER SERVICE SEATTLE WA
1000 AM PST SUN DEC 04 2016

NOTE:"FAIR" INDICATES FEW OR NO CLOUDS BELOW 12,000 FEET WITH NO 
SIGNIFICANT WEATHER AND/OR OBSTRUCTIONS TO VISIBILITY.

WAZ507-509-555>559-041900-
SEATTLE, TACOMA, EVERETT, AND VICINITY
  
CITY           SKY/WX    TMP DP  RH WIND       PRES   REMARKS
EVERETT        LGT RAIN  40  34  79 W8        30.02R                  
6HR MIN TEMP:  38; 6HR MAX TEMP:  41; 6HR PCP: TRACE;                

BOEING FIELD   PTSUNNY   39  37  92 S6        30.04S                  
6HR MIN TEMP:  39; 6HR MAX TEMP:  43; 6HR PCP:  0.16;                

RENTON         CLOUDY    40  37  89 S6        30.04R                  
6HR MIN TEMP:  39; 6HR MAX TEMP:  44; 6HR PCP:  0.12;                

SEATAC AIRPORT CLOUDY    37  36  96 S6        30.03S                  
6HR MIN TEMP:  37; 6HR MAX TEMP:  43; 6HR PCP:  0.17;                

JBLM-MCCHORD   PTSUNNY   43  37  81 SW3       30.05R                  
6HR MIN TEMP:  36; 6HR MAX TEMP:  43;                                

PUYALLUP       CLOUDY    41  37  87 CALM      30.05R                  
BREMERTON      CLOUDY    39  37  93 NE3       30.07R                  
6HR MIN TEMP:  36; 6HR MAX TEMP:  39;                                

JBLM-FT LEWIS  SUNNY     41  36  81 SW5       30.04R                  
6HR MIN TEMP:  38; 6HR MAX TEMP:  42; 6HR PCP:  0.01;                

TACOMA NARROWS PTSUNNY   39  37  92 CALM      30.04R                  
6HR MIN TEMP:  39; 6HR MAX TEMP:  42;                                

$$
 
WAZ001-503-506-510-514-515-041900-
NORTH INTERIOR
  
CITY           SKY/WX    TMP DP  RH WIND       PRES   REMARKS
BELLINGHAM     CLOUDY    41  32  70 W7G21     30.00R                  
6HR MIN TEMP:  37; 6HR MAX TEMP:  41; 6HR PCP:  0.12;                

FRIDAY HARBOR  SUNNY     43  33  68 CALM      30.03R                  
6HR MIN TEMP:  34; 6HR MAX TEMP:  43;                                

EASTSOUND      MOSUNNY   41  32  70 NW7       30.00R                  
PORT ANGELES   SUNNY     41  31  67 W7        30.04R                  
6HR MIN TEMP:  37; 6HR MAX TEMP:  41; 6HR PCP:  0.02;                

EDIZ HOOK      FAIR      43  31  62 W14       30.05R                  
6HR MIN TEMP:  40; 6HR MAX TEMP:  43; 6HR PCP:  0.01;                

PORT TOWNSEND  FAIR      45  30  57 W9G16     30.04R                  
NAS WHIDBEY    PTSUNNY   44  28  53 NW15      30.07R                  
6HR MIN TEMP:  42; 6HR MAX TEMP:  46;                                

ARLINGTON      MOSUNNY   39  30  70 N3        30.04R                  
6HR MIN TEMP:  37; 6HR MAX TEMP:  45;                                

BURLINGTON     PTSUNNY   39  37  93 CALM      30.03R                  
$$
 
WAZ020-022-039-040-504-511-512-041900-
SOUTHWEST INTERIOR
  
CITY           SKY/WX    TMP DP  RH WIND       PRES   REMARKS
SHELTON        SUNNY     42  34  73 CALM      30.02R                  
6HR MIN TEMP:  37; 6HR MAX TEMP:  42;                                

OLYMPIA        MOSUNNY   43  32  65 VRB5      30.04R                  
6HR MIN TEMP:  39; 6HR MAX TEMP:  43; 6HR PCP:  0.01;                

CHEHALIS       FAIR      41  37  87 CALM      30.08R                  
KELSO          PTSUNNY   43  40  89 CALM      30.11R                  
6HR MIN TEMP:  41; 6HR MAX TEMP:  45; 6HR PCP:  0.17;                

VANCOUVER      CLOUDY    44  38  79 NW5       30.11R                  
6HR MIN TEMP:  43; 6HR MAX TEMP:  47; 6HR PCP:  0.27;                

SCAPPOOSE, OR  CLOUDY    43  39  86 CALM      30.10R                  
6HR MIN TEMP:  42; 6HR MAX TEMP:  46; 6HR PCP:  0.10;                

PORTLAND, OR   CLOUDY    44  38  79 NW8       30.12R                  
6HR MIN TEMP:  43; 6HR MAX TEMP:  47; 6HR PCP:  0.29;                

$$
 
WAZ021-516-517-041900-
WASHINGTON COAST
  
CITY           SKY/WX    TMP DP  RH WIND       PRES   REMARKS
FORKS          MOSUNNY   39  36  89 E5        30.08R                  
6HR MIN TEMP:  36; 6HR MAX TEMP:  41; 6HR PCP:  0.02;                

HOQUIAM        MOSUNNY   42  36  79 W6        30.09R                  
6HR MIN TEMP:  40; 6HR MAX TEMP:  44; 6HR PCP: TRACE;                

ASTORIA, OR    PTSUNNY   47  35  63 N8        30.11R                  
6HR MIN TEMP:  45; 6HR MAX TEMP:  48; 6HR PCP:  0.09;                

$$
 
WAZ019-023-024-040-567>569-041900-
CASCADE MOUNTAINS AND COLUMBIA GORGE
  
CITY           SKY/WX    TMP DP  RH WIND       PRES   REMARKS
STAMPEDE PASS  SNOW      24  24 100 VRB7      29.85R VSB 1/4          
6HR MIN TEMP:  24; 6HR MAX TEMP:  28; 6HR PCP:  0.33;                

TROUTDALE, OR  CLOUDY    44  39  82 W5        30.11R                  
6HR MIN TEMP:  43; 6HR MAX TEMP:  47;                                

THE DALLES, OR CLOUDY    45  40  82 CALM      30.01R                  
6HR MIN TEMP:  44; 6HR MAX TEMP:  47; 6HR PCP:  0.11;                

$$

WAZ026-027-041>044-520-521-041900-
EAST SLOPES
  
CITY           SKY/WX    TMP DP  RH WIND       PRES   REMARKS
OMAK           CLOUDY    33  29  85 CALM      29.81S                  
6HR MIN TEMP:  25; 6HR MAX TEMP:  33;                                

WENATCHEE      SUNNY     42  29  59 NW7       29.83S                  
6HR MIN TEMP:  36; 6HR MAX TEMP:  43; 6HR PCP: TRACE;                

ELLENSBURG     MOSUNNY   39  29  67 W14       29.86R                  
6HR MIN TEMP:  35; 6HR MAX TEMP:  39; 6HR PCP:  0.02;                

YAKIMA         PTSUNNY   46  26  45 W14G21    29.88S                  
6HR MIN TEMP:  32; 6HR MAX TEMP:  46;                                

$$

WAZ028-034-035-041900-
COLUMBIA BASIN
  
CITY           SKY/WX    TMP DP  RH WIND       PRES   REMARKS
EPHRATA        SUNNY     45  22  40 NW10      29.82R                  
6HR MIN TEMP:  34; 6HR MAX TEMP:  45;                                

MOSES LAKE     SUNNY     44  30  57 W13       29.84R                  
6HR MIN TEMP:  37; 6HR MAX TEMP:  44;                                

PASCO          CLOUDY    46  37  71 W17       29.90S                  
6HR MIN TEMP:  46; 6HR MAX TEMP:  48;                                

HERMISTON, OR  CLOUDY    45  36  70 SW17G31   29.91F                  
6HR MIN TEMP:  44; 6HR MAX TEMP:  47;                                

$$

WAZ036>038-041900-
NORTHEAST WASHINGTON
  
CITY           SKY/WX    TMP DP  RH WIND       PRES   REMARKS
SPOKANE GEIGER PTSUNNY   37  31  78 W15       29.74S                  
6HR MIN TEMP:  36; 6HR MAX TEMP:  37; 6HR PCP: TRACE;                

SPOKANE FELTS  LGT RAIN  39  33  79 SW10      29.75F                  
6HR MIN TEMP:  39; 6HR MAX TEMP:  40; 6HR PCP: TRACE;                

FAIRCHILD AFB  CLOUDY    36  34  93 W15       29.74S                  
6HR MIN TEMP:  35; 6HR MAX TEMP:  36; 6HR PCP: TRACE;                

COEURDALENE,ID LGT RAIN  37  34  89 W15       29.74S                  
6HR MIN TEMP:  36; 6HR MAX TEMP:  38; 6HR PCP:  0.08;                

DEER PARK      CLOUDY    37  32  82 SW9       29.74S                  
6HR MIN TEMP:  36; 6HR MAX TEMP:  37; 6HR PCP: TRACE;                

$$

WAZ029>033-041900-
SOUTHEAST WASHINGTON
  
CITY           SKY/WX    TMP DP  RH WIND       PRES   REMARKS
PULLMAN        LGT RAIN  37  34  89 W20G25    29.81S                  
6HR MIN TEMP:  35; 6HR MAX TEMP:  39; 6HR PCP:  0.23;                

LEWISTON, ID   LGT RAIN  42  37  82 W10       29.85R                  
6HR MIN TEMP:  41; 6HR MAX TEMP:  45; 6HR PCP:  0.08;                

WALLA WALLA    RAIN      42  37  82 SW17      29.90R                  
6HR MIN TEMP:  42; 6HR MAX TEMP:  46; 6HR PCP:  0.02;                

PENDLETON, OR  LGT RAIN  40  36  86 W28G35    29.89F                  
6HR MIN TEMP:  40; 6HR MAX TEMP:  46; 6HR PCP:  0.01;                

$$